This is the latest recevied weather packets stored in our database for station/object KF6FPU-15. If no packets are shown the sender has not sent any weather packets the latest 10 day(s).
| Time | Temp. | Humidity | Pressure | Rain* | Wind** | Luminosity | Snow |
|---|---|---|---|---|---|---|---|
| 1777395112 | 26.67° C | 19% | 1020.2 hPa | - | - | - | - |
| 1777394512 | 25.56° C | 19% | 1020.3 hPa | - | - | - | - |
| 1777393912 | 25.56° C | 19% | 1020.3 hPa | - | - | - | - |
| 1777393312 | 25.56° C | 19% | 1020.3 hPa | - | - | - | - |
| 1777392712 | 25.56° C | 19% | 1020.3 hPa | - | - | - | - |
| 1777392112 | 26.11° C | 19% | 1020.3 hPa | - | - | - | - |
| 1777391512 | 25° C | 19% | 1020.2 hPa | - | - | - | - |
| 1777390912 | 25.56° C | 19% | 1020.1 hPa | - | - | - | - |
| 1777390312 | 24.44° C | 19% | 1020.1 hPa | - | - | - | - |
| 1777389712 | 23.89° C | 19% | 1020 hPa | - | - | - | - |
| 1777388512 | 24.44° C | 19% | 1019.9 hPa | - | - | - | - |
| 1777387912 | 25.56° C | 20% | 1019.8 hPa | - | - | - | - |
| 1777387312 | 25.56° C | 20% | 1019.7 hPa | - | - | - | - |
| 1777386712 | 25.56° C | 20% | 1019.6 hPa | - | - | - | - |
| 1777386112 | 25.56° C | 20% | 1019.6 hPa | - | - | - | - |
| 1777385512 | 25.56° C | 20% | 1019.5 hPa | - | - | - | - |
| 1777384912 | 25.56° C | 20% | 1019.4 hPa | - | - | - | - |
| 1777384312 | 25.56° C | 20% | 1019.2 hPa | - | - | - | - |
| 1777383712 | 25.56° C | 19% | 1019.1 hPa | - | - | - | - |
| 1777383112 | 25.56° C | 20% | 1019.1 hPa | - | - | - | - |
| 1777381912 | 25.56° C | 19% | 1018.9 hPa | - | - | - | - |
| 1777381312 | 25.56° C | 19% | 1018.8 hPa | - | - | - | - |
| 1777380712 | 25.56° C | 20% | 1018.7 hPa | - | - | - | - |
| 1777380112 | 26.11° C | 20% | 1018.6 hPa | - | - | - | - |
| 1777379512 | 26.11° C | 20% | 1018.6 hPa | - | - | - | - |
* Rain since midnight (hover to see other rain measurements)
** Current wind speed in m/s (hover to see current wind gust speed)